Location: Skalnate Pleso
(49.1889°N, 20.2450°E)
Time: 03:16:25
(UTC+02:00)

COSMOS 2428 - Pass Details

Date: 25 February 2020
Orbit: 846 x 856 km, 70.9° (Epoch: 28 March)

Event Time Altitude Azimuth Distance (km) Brightness Sun altitude
Exits shadow 02:10:43 17° 9° (N) 2,061 5.1 -40.8°
Drops below altitude 10° 02:12:06 10° 17° (NNE) 2,501 5.7 -40.6°
Sets 02:14:48 0° 26° (NNE) 3,440 6.6 -40.3°
